Capri, Italy

12:13 PM CET on December 13, 2017 (GMT +0100)
Capri

Weather History for LIQC - May, 2014

Change the Weather History Date:

Tuesday, May 6, 2014

  Actual Average (LIRN) Record (LIRN)
Temperature  
Mean Temperature 66 °F -  
Max Temperature 75 °F 71 °F 86 °F (2003)
Min Temperature 57 °F 55 °F 50 °F (2002)
Cooling Degree Days 1    
Growing Degree Days 16 (Base 50)    
Moisture  
Dew Point 59 °F    
Average Humidity 83    
Maximum Humidity 95    
Minimum Humidity 58    
Precipitation  
Precipitation 0.00 in - - ()
Sea Level Pressure  
Sea Level Pressure 30.13 in    
Wind  
Wind Speed 3 mph ()    
Max Wind Speed 7 mph    
Max Gust Speed -    
Visibility 6.0 miles    
Events      
Averages and records for this station are not official NWS values.
T = Trace of Precipitation, MM = Missing Value Source: Averaged Metar Reports

Daily Weather History Graph

Daily Weather History Graph

Search for Another Location

Airport or City:

Trip Planner

Search our weather history database for the weather conditions in past years. The results will help you decide how hot, cold, wet, or windy it might be!

Date:

Astronomy

May. 06, 2014 Rise Set
Actual Time 5:56 AM CEST 8:03 PM CEST
Civil Twilight 5:26 AM CEST 8:34 PM CEST
Nautical Twilight 4:49 AM CEST 9:11 PM CEST
Astronomical Twilight 4:09 AM CEST 9:51 PM CEST
Moon 11:56 AM CEST (5/6) 1:13 AM CEST (5/6)
Length of Visible Light 15h 07m
Length of Day
14h 07m
Waxing Crescent, 43% of the Moon is Illuminated
May 6
Waxing Crescent
May 7
First Quarter
May 14
Full
May 21
Last Quarter
May 28
New

Hourly Weather History & Observations

Time (CEST) Temp. Dew Point Humidity Pressure Visibility Wind Dir Wind Speed Gust Speed Precip Events Conditions
2:00 AM 59 °F 58 °F 93% 30.08 in 6 mi 3.5 mph - -  
3:55 AM 59.0 °F 57.2 °F 94% 30.06 in - North - - N/A   Clear
4:55 AM 59.0 °F 57.2 °F 94% 30.09 in - North - - N/A   Clear
5:00 AM 59 °F 58 °F 95% 30.10 in 6 mi 2.3 mph - -  
5:55 AM 57.2 °F 55.4 °F 94% 30.09 in - North - - N/A   Clear
6:55 AM 57.2 °F 55.4 °F 94% 30.09 in - North - - N/A   Scattered Clouds
7:55 AM 59.0 °F 55.4 °F 88% 30.12 in - North - - N/A   Scattered Clouds
8:00 AM 59 °F 56 °F 87% 30.13 in 6 mi Calm Calm - -   Partly Cloudy
8:55 AM 59.0 °F 55.4 °F 88% 30.12 in - North - - N/A   Partly Cloudy
1:55 PM 68.0 °F 59.0 °F 73% 30.15 in - North - - N/A   Clear
2:00 PM 68 °F 59 °F 67% 30.17 in 6 mi 6.9 mph - -  
2:55 PM 71.6 °F 60.8 °F 69% 30.15 in - North - - N/A   Clear
4:55 PM 75.2 °F 62.6 °F 65% 30.15 in - North - - N/A   Clear
5:00 PM 75 °F 63 °F 58% 30.15 in 6 mi 5.8 mph - -  
5:55 PM 75.2 °F 66.2 °F 73% 30.15 in - North - - N/A   Clear
6:55 PM 71.6 °F 62.6 °F 73% 30.15 in - North - - N/A   Clear
7:55 PM 71.6 °F 64.4 °F 78% 30.15 in - North - - N/A   Clear
8:00 PM 71 °F 64 °F 74% 30.14 in 6 mi 4.6 mph - -  
8:55 PM 62.6 °F 59.0 °F 88% 30.15 in - North - - N/A   Clear
10:55 PM 60.8 °F 57.2 °F 88% 30.18 in - North - - N/A   Clear
11:00 PM 60 °F 58 °F 91% 30.18 in 6 mi 3.5 mph - -  
11:55 PM 59.0 °F 57.2 °F 94% 30.15 in - North - - N/A   Clear